COSMOS 2251 DEB

Satellite information

Favourite Embed

Satellite Type and Status

DEBRISIN ORBIT

Key statistics

Satellite COSMOS 2251 DEB at a glance.

Uptime

11816

Days in orbit

Revolutions

≈ 14.5

Per day

Orbit

LEO

Low Earth Orbit

Inclination

74.0

Latest

Satellite identification and parameters

Extended collection of information and parameters for COSMOS 2251 DEB.

Object identification

Identified? True

Debris? True

Object name: COSMOS 2251 DEB

International designator: 1993-036AER

Object number (NORAD): 34962

Object ID (CCSDS): 34962

Country: COMMONWEALTH OF INDEPENDENT STATES (CIS)

Current information (Y/N): Y

RCS size: SMALL

Orbital parameters

Period: 99.569 minutes

Inclination: 74.0286 deg

SMA: 7116.117 km

Apoapsis: 749.922 km

Periapsis: 726.042 km

RAAN: 294.7957 deg

Eccentricy: 0.00167792

Argument of periapsis: 58.7805 deg

Mean anomaly: 301.4995 deg

Mean motion: 14.46232584 rev/day

Mean motion (dot): 0.00003155 rev/day2

B* drag term: 0.00088699034 1/REarth

Two-line elements (TLE)

Creation date: Oct. 20, 2025, 2:10 a.m.

Reference frame: TEME

Reference center: EARTH

Epoch: Oct. 19, 2025, 10:14 a.m. UTC

TLE line 0: 0 COSMOS 2251 DEB

TLE line 1: 1 34962U 93036AER 25292.42683030 .00003155 00000-0 88699-3 0 9998

TLE line 2: 2 34962 74.0286 294.7957 0016779 58.7805 301.4995 14.46232584867932

Live tracking on map

Real-time ground track for satellite COSMOS 2251 DEB.

In-orbit conjunctions

A list of the most updated potential collisions computed for object COSMOS 2251 DEB.

Target Orbit TCA Probability of collision Miss distance Type
SL-8 R/B LEO 2025-05-21 00:52:47 0.001372994 93.0 (m) ROCKET BODY

Associated space launch

Military communications satellite. Destroyed in a collision with Iridium 33.

COSMOS 2251 DEB was lifted into orbit during the mission ‘Kosmos-3M | Strela-2M 51’, on board a Kosmos-3M space rocket.

The launch took place on June 16, 1993, 4:17 a.m. from 132/1 (132L).

For more information about the launch, click the button.

Launch to space Kosmos-3M | Strela-2M 51
Kosmos-3M | Strela-2M 51

Agency: N/A

Status: Launch Successful

Launch date: June 16, 1993, 4:17 a.m. UTC

Rocket: Kosmos-3M

Launch pad: 132/1 (132L)

Location: Plesetsk Cosmodrome, Russian Federation

...

Latest news about this satellite

There are no fresh news available about this satellite. Check back as we update our databases every day.


Newsletter sign-up

Weekly statistics, charts and insights to help you stay on top of the space industry.